[[{"header":{"parameterUnit":"m.s-1","parameterCategory":1,"la1":30.2991,"la2":30.254,"lo1":-89.0895,"lo2":-89.0444,"dy":0.0017,"dx":0.0017,"nx":28,"ny":28,"refTime":"2024-10-19T21:00:00:Z","depth":0,"parameterNumber":2,"parameterNumberName":"U-component_of_WINDS"},"data":[0,0,0,0,0,0,0,0,0,0,0,0,0,0,0,0,0,0,0,0,0,0,0,0,0,0,0,0,0,0,0,0,0,0,0,0,0,0,0,0,0,0,0,0,0,0,0,0,0,0,0,0,0,0,0,0,0,0,-3.6534,-3.6535,0,-3.6583,-3.6584,-3.6584,-3.6508,-3.6506,-3.6503,-3.6501,-3.6552,-3.6555,-3.6559,0,0,0,0,0,0,0,0,0,0,0,0,0,-3.6377,-3.6381,-3.6534,-3.6535,-3.6536,-3.6583,-3.6584,-3.6584,-3.6509,-3.6506,-3.6503,-3.65,-3.655,-3.6555,-3.6559,0,0,0,0,0,0,0,0,0,0,0,0,0,-3.6438,-3.6382,-3.6534,-3.6504,-3.6501,-3.6583,-3.6584,-3.6584,-3.651,-3.6506,-3.6502,-3.6498,-3.6549,-3.6554,-3.656,-3.6674,0,0,-3.6578,-3.658,0,0,0,0,0,0,0,0,-3.6435,-3.6444,-3.6508,-3.6506,-3.6503,-3.6536,-3.6547,-3.6615,-3.6511,-3.6507,-3.6501,-3.6496,-3.655,-3.6555,-3.6573,-3.6676,-3.6679,-3.6578,-3.6581,-3.6584,-3.6586,0,0,0,0,0,0,0,-3.643,-3.6441,-3.6554,-3.6509,-3.6506,-3.6488,-3.6492,-3.6559,-3.655,-3.6507,-3.6501,-3.6508,-3.6548,-3.6567,-3.6573,-3.6679,-3.6578,-3.6583,-3.6586,-3.6589,-3.6881,-3.6885,0,0,0,0,0,0,-3.643,-3.6438,-3.6552,-3.6555,-3.6459,-3.6494,-3.6499,-3.6529,-3.6549,-3.6548,-3.6511,-3.6504,-3.656,-3.6567,-3.6575,-3.6712,-3.6584,-3.6589,-3.6593,-3.6877,-3.6882,-3.6887,0,0,0,0,0,0,-3.6427,-3.6441,-3.655,-3.6495,-3.6508,-3.6501,-3.6536,-3.6532,-3.6552,-3.6552,-3.655,-3.6533,-3.6557,-3.6567,-3.665,-3.6712,-3.6592,-3.6597,-3.6872,-3.6878,-3.6884,-3.6985,0,0,0,0,0,0,-3.6423,-3.644,-3.6483,-3.6497,-3.6511,-3.6625,-3.654,-3.6536,-3.6562,-3.6553,-3.6572,-3.6572,-3.6555,-3.6642,-3.6656,-3.6718,-3.6601,-3.6866,-3.6875,-3.6882,-3.6976,-3.6994,-3.7009,0,0,0,0,0,-3.6417,-3.6509,-3.6486,-3.65,-3.6564,-3.6628,-3.6636,-3.6615,-3.6567,-3.6611,-3.6611,-3.6571,-3.6703,-3.6651,-3.6666,-3.6731,-3.6862,-3.6872,-3.6882,-3.6968,-3.699,-3.7009,0,0,0,0,0,0,-3.6503,-3.651,-3.6484,-3.6583,-3.6606,-3.6615,-3.667,-3.6638,-3.6675,-3.6665,-3.6637,-3.6642,-3.6732,-3.6739,-3.6682,-3.6843,-3.6775,-3.6788,-3.6836,-3.6856,-3.6873,-3.687,-3.6606,0,0,0,0,0,-3.6533,-3.6584,-3.6588,-3.6675,-3.6687,-3.6677,-3.6704,-3.6685,-3.6707,-3.6717,-3.6723,-3.6746,-3.6793,-3.6825,-3.6867,-3.6976,-3.698,-3.7028,-3.7044,-3.7058,-3.7071,-3.7131,-3.7152,-3.6919,-3.6919,-3.6919,0,0,-3.6596,-3.6607,-3.6641,-3.6692,-3.6707,-3.6762,-3.6685,-3.6745,-3.6786,-3.6726,-3.6806,-3.6811,-3.6835,-3.6933,-3.6976,-3.6941,-3.7136,-3.707,-3.7081,-3.7086,-3.7143,-3.7165,-3.7185,-3.6926,-3.6924,-3.6923,0,0,-3.674,-3.6752,-3.6827,-3.6844,-3.6868,-3.686,-3.6878,-3.6893,-3.6895,-3.6974,-3.6931,-3.6978,-3.7059,-3.7079,-3.71,-3.7252,-3.7217,-3.7266,-3.7354,-3.7413,-3.7432,-3.7448,-3.7504,-3.7525,-3.7278,-3.7279,-3.7279,0,-3.6816,-3.6895,-3.6869,-3.6933,-3.6958,-3.6906,-3.6982,-3.7,-3.7037,-3.7056,-3.7016,-3.7118,-3.713,-3.7232,-3.727,-3.7287,-3.7308,-3.7265,-3.7431,-3.7447,-3.7462,-3.7515,-3.7537,-3.7285,-3.7284,-3.7283,-3.7283,0,-3.6989,-3.7045,-3.7102,-3.714,-3.7171,-3.7241,-3.7226,-3.726,-3.7239,-3.7236,-3.7318,-3.7331,-3.7377,-3.7399,-3.7379,-3.7499,-3.7478,-3.7435,-3.7366,-3.7491,-3.7541,-3.7561,-3.7293,-3.7291,-3.7289,-3.7288,0,0,-3.7189,-3.7211,-3.7233,-3.725,-3.7273,-3.7316,-3.7384,-3.7429,-3.746,-3.7487,-3.7545,-3.7614,-3.7576,-3.7599,-3.758,-3.7632,-3.7754,-3.7583,-3.7583,-3.7617,-3.7891,-3.7924,-3.7949,-3.7731,-3.7734,-3.7737,-3.7889,0,-3.7334,-3.7451,-3.743,-3.7544,-3.7597,-3.7548,-3.7607,-3.7628,-3.7627,-3.7672,-3.767,-3.7722,-3.7665,-3.768,-3.7728,-3.7729,-3.7809,-3.7718,-3.7786,-3.7788,-3.7784,-3.7974,-3.801,-3.8153,-3.7909,-3.7912,-3.7914,0,-3.7519,-3.7554,-3.7674,-3.769,-3.7711,-3.7765,-3.7805,-3.7847,-3.7871,-3.7866,-3.7894,-3.7865,-3.7934,-3.7863,-3.7958,-3.7896,-3.7922,-3.7927,-3.7932,-3.794,-3.7861,-3.7989,-3.8197,-3.822,-3.7944,-3.7942,-3.794,0,-3.7656,-3.7732,-3.7815,-3.783,-3.7851,-3.789,-3.79,-3.7919,-3.7948,-3.7983,-3.8002,-3.8044,-3.8068,-3.8102,-3.8086,-3.8035,-3.8186,-3.8112,-3.8186,-3.8187,-3.8221,-3.822,-3.8439,-3.8234,-3.8234,-3.8234,-3.8233,0,-3.7821,-3.7897,-3.7877,-3.7928,-3.8012,-3.7986,-3.807,-3.8075,-3.8093,-3.8144,-3.8104,-3.8153,-3.8129,-3.8177,-3.8165,-3.8247,-3.8257,-3.8257,-3.8253,-3.8262,-3.8263,-3.8281,-3.8271,-3.8239,-3.8238,-3.8237,-3.8236,0,-3.799,-3.7978,-3.8065,-3.8077,-3.8082,-3.8144,-3.8155,-3.8203,-3.8198,-3.8265,-3.8278,-3.8272,-3.8327,-3.8314,-3.8373,-3.8365,-3.847,-3.8452,-3.8462,-3.8459,-3.8534,-3.8529,-3.8775,-3.8807,-3.8579,-3.8581,-3.8583,0,-3.8097,-3.8155,-3.8173,-3.8205,-3.8219,-3.827,-3.8299,-3.8276,-3.8309,-3.834,-3.8385,-3.8436,-3.8475,-3.8565,-3.8566,-3.8612,-3.8597,-3.868,-3.8604,-3.8611,-3.8601,-3.8599,-3.8606,-3.8696,-3.8699,-3.8701,-3.8703,0,-3.8291,-3.8282,-3.8326,-3.8369,-3.8405,-3.8437,-3.8465,-3.8494,-3.8473,-3.8512,-3.8567,-3.8598,-3.8659,-3.8711,-3.8753,-3.8764,-3.8732,-3.8727,-3.8746,-3.8757,-3.8762,-3.8763,-3.8507,-3.8722,-3.872,-3.8718,-3.8717,-3.8717,-3.8433,-3.8483,-3.8505,-3.8555,-3.8574,-3.8602,-3.8648,-3.865,-3.8695,-3.8744,-3.8727,-3.8791,-3.8814,-3.8867,-3.8884,-3.8934,-3.8903,-3.8931,-3.8938,-3.8946,-3.8957,-3.8752,-3.8941,-3.894,-3.894,-3.8939,-3.8939,0,-3.8627,-3.8638,-3.8685,-3.8726,-3.8767,-3.8731,-3.8761,-3.8797,-3.8854,-3.8877,-3.8917,-3.8982,-3.9032,-3.9037,-3.9085,-3.9124,-3.9111,-3.9138,-3.9136,-3.914,-3.8981,-3.896,-3.9148,-3.9148,-3.9148,-3.9148,-3.9148,-3.9148,-3.8733,-3.8815,-3.881,-3.8902,-3.8913,-3.8975,-3.8996,-3.9022,-3.9041,-3.9115,-3.9156,-3.9159,-3.9176,-3.9225,-3.927,-3.927,-3.9291,-3.9324,-3.9319,-3.9171,-3.9151,-3.9131,-3.9111,-3.9328,-3.9329,-3.9474,-3.9476,-3.9477]},{"header":{"parameterUnit":"m.s-1","parameterCategory":1,"la1":30.2991,"la2":30.254,"lo1":-89.0895,"lo2":-89.0444,"dy":0.0017,"dx":0.0017,"nx":28,"ny":28,"refTime":"2024-10-19T21:00:00:Z","depth":0,"parameterNumber":3,"parameterNumberName":"V-component_of_WINDS"},"data":[0,0,0,0,0,0,0,0,0,0,0,0,0,0,0,0,0,0,0,0,0,0,0,0,0,0,0,0,0,0,0,0,0,0,0,0,0,0,0,0,0,0,0,0,0,0,0,0,0,0,0,0,0,0,0,0,0,0,-2.5886,-2.5886,0,-2.589,-2.589,-2.589,-2.585,-2.5849,-2.5848,-2.5847,-2.585,-2.5852,-2.5853,0,0,0,0,0,0,0,0,0,0,0,0,0,-2.5843,-2.5844,-2.5886,-2.5886,-2.5886,-2.589,-2.589,-2.589,-2.585,-2.5849,-2.5847,-2.5846,-2.585,-2.5851,-2.5853,0,0,0,0,0,0,0,0,0,0,0,0,0,-2.5856,-2.5844,-2.5886,-2.5867,-2.5865,-2.589,-2.589,-2.589,-2.585,-2.5849,-2.5847,-2.5845,-2.585,-2.5851,-2.5853,-2.5896,0,0,-2.5858,-2.5859,0,0,0,0,0,0,0,0,-2.5855,-2.5857,-2.5869,-2.5868,-2.5866,-2.5868,-2.5876,-2.5892,-2.5851,-2.5856,-2.5847,-2.5845,-2.5857,-2.5858,-2.5863,-2.5897,-2.5897,-2.5858,-2.5859,-2.586,-2.5861,0,0,0,0,0,0,0,-2.5854,-2.5857,-2.5887,-2.5869,-2.5868,-2.5857,-2.5857,-2.5879,-2.5866,-2.5855,-2.5852,-2.5853,-2.5856,-2.5861,-2.5863,-2.5897,-2.5858,-2.586,-2.5861,-2.5861,-2.5965,-2.5967,0,0,0,0,0,0,-2.5856,-2.5856,-2.5887,-2.5887,-2.5856,-2.5859,-2.5859,-2.5869,-2.5866,-2.5863,-2.5855,-2.5852,-2.5859,-2.5861,-2.5863,-2.5913,-2.586,-2.5862,-2.5863,-2.5964,-2.5966,-2.5968,0,0,0,0,0,0,-2.5855,-2.5859,-2.5887,-2.5871,-2.5874,-2.5862,-2.5873,-2.587,-2.5875,-2.5865,-2.5863,-2.5862,-2.5858,-2.586,-2.5888,-2.5912,-2.5862,-2.5864,-2.5962,-2.5964,-2.5967,-2.6014,0,0,0,0,0,0,-2.5854,-2.5859,-2.5876,-2.5872,-2.5875,-2.5913,-2.5874,-2.5871,-2.5878,-2.5873,-2.5872,-2.587,-2.5857,-2.5886,-2.589,-2.5914,-2.5865,-2.5959,-2.5963,-2.5966,-2.601,-2.6017,-2.6024,0,0,0,0,0,-2.5853,-2.5889,-2.5877,-2.5881,-2.5896,-2.5914,-2.5916,-2.5901,-2.588,-2.5896,-2.589,-2.587,-2.5909,-2.5889,-2.5893,-2.5918,-2.5958,-2.5962,-2.5966,-2.6007,-2.6016,-2.6024,0,0,0,0,0,0,-2.5896,-2.5888,-2.5875,-2.5911,-2.5914,-2.5908,-2.5928,-2.5911,-2.592,-2.5916,-2.5896,-2.5896,-2.5927,-2.5925,-2.5903,-2.5959,-2.593,-2.5935,-2.5959,-2.5968,-2.5975,-2.5975,-2.5867,0,0,0,0,0,-2.591,-2.5926,-2.5918,-2.5951,-2.5953,-2.594,-2.5948,-2.5936,-2.5938,-2.5939,-2.5935,-2.5937,-2.595,-2.5959,-2.597,-2.6009,-2.6008,-2.6028,-2.6035,-2.6041,-2.6046,-2.6065,-2.6074,-2.5981,-2.5981,-2.598,0,0,-2.5939,-2.5936,-2.5948,-2.5959,-2.596,-2.5977,-2.5942,-2.5961,-2.5973,-2.5942,-2.5968,-2.5965,-2.5966,-2.6,-2.6014,-2.5999,-2.6071,-2.6046,-2.6051,-2.6052,-2.607,-2.6079,-2.6087,-2.5983,-2.5983,-2.5982,0,0,-2.6,-2.6,-2.6026,-2.6028,-2.6029,-2.602,-2.6027,-2.6023,-2.602,-2.6046,-2.6022,-2.6036,-2.6059,-2.6061,-2.6065,-2.6125,-2.6107,-2.6129,-2.6167,-2.6186,-2.6193,-2.62,-2.6221,-2.6229,-2.6134,-2.6134,-2.6134,0,-2.6035,-2.606,-2.6042,-2.6063,-2.6069,-2.6041,-2.6067,-2.6069,-2.6074,-2.6079,-2.6062,-2.6089,-2.6088,-2.6121,-2.6136,-2.614,-2.6147,-2.613,-2.6194,-2.62,-2.6206,-2.6226,-2.6234,-2.6137,-2.6137,-2.6136,-2.6136,0,-2.6103,-2.6121,-2.6142,-2.6147,-2.6155,-2.6179,-2.6164,-2.6174,-2.6161,-2.6154,-2.618,-2.6178,-2.6188,-2.6195,-2.6183,-2.6226,-2.6217,-2.6197,-2.6167,-2.6218,-2.6236,-2.6244,-2.6141,-2.614,-2.6139,-2.6138,0,0,-2.6193,-2.6187,-2.6195,-2.6197,-2.6196,-2.6209,-2.6231,-2.624,-2.6249,-2.6253,-2.6271,-2.629,-2.6272,-2.6277,-2.6264,-2.6281,-2.6328,-2.6259,-2.6259,-2.6272,-2.6376,-2.6391,-2.64,-2.6316,-2.6317,-2.6319,-2.6376,0,-2.6252,-2.6289,-2.6273,-2.6312,-2.6327,-2.63,-2.6319,-2.6321,-2.6314,-2.6326,-2.6319,-2.6333,-2.6308,-2.631,-2.6326,-2.6319,-2.6349,-2.6315,-2.6332,-2.6333,-2.6333,-2.641,-2.6425,-2.6479,-2.6383,-2.6384,-2.6385,0,-2.6326,-2.6332,-2.6373,-2.6368,-2.6374,-2.6391,-2.6398,-2.641,-2.6411,-2.6405,-2.641,-2.6393,-2.6414,-2.6384,-2.6412,-2.6389,-2.6395,-2.6393,-2.6394,-2.6395,-2.6362,-2.6413,-2.6496,-2.6504,-2.6396,-2.6395,-2.6394,0,-2.6386,-2.6406,-2.6432,-2.6434,-2.6429,-2.6442,-2.6441,-2.644,-2.6446,-2.6452,-2.6456,-2.6465,-2.647,-2.6477,-2.6462,-2.6442,-2.6493,-2.6461,-2.6488,-2.6488,-2.65,-2.65,-2.6586,-2.6504,-2.6504,-2.6504,-2.6504,0,-2.6454,-2.6479,-2.6459,-2.6475,-2.6503,-2.6484,-2.6512,-2.6507,-2.6507,-2.6521,-2.6498,-2.6513,-2.6493,-2.6505,-2.6494,-2.6519,-2.6521,-2.6517,-2.6514,-2.6519,-2.652,-2.6523,-2.6519,-2.6506,-2.6506,-2.6505,-2.6505,0,-2.6526,-2.6514,-2.654,-2.6534,-2.6532,-2.6553,-2.6547,-2.6561,-2.6553,-2.6572,-2.6575,-2.6562,-2.6575,-2.6562,-2.6574,-2.6567,-2.66,-2.6591,-2.66,-2.6597,-2.6625,-2.6622,-2.6716,-2.6727,-2.6639,-2.6639,-2.664,0,-2.657,-2.6589,-2.6584,-2.6592,-2.6592,-2.6605,-2.6612,-2.6594,-2.6601,-2.6603,-2.6617,-2.6628,-2.6636,-2.6658,-2.665,-2.6659,-2.665,-2.6682,-2.6651,-2.6656,-2.665,-2.6649,-2.6651,-2.6689,-2.669,-2.6691,-2.6691,0,-2.665,-2.6642,-2.6652,-2.666,-2.6668,-2.6673,-2.6676,-2.6684,-2.6665,-2.6675,-2.6688,-2.6694,-2.6706,-2.6717,-2.6724,-2.6722,-2.6704,-2.6701,-2.6708,-2.6713,-2.6717,-2.6715,-2.6617,-2.6699,-2.6698,-2.6698,-2.6697,-2.6697,-2.6709,-2.6724,-2.6723,-2.6734,-2.6735,-2.6738,-2.6751,-2.6744,-2.6755,-2.6763,-2.6752,-2.6767,-2.6767,-2.6774,-2.6774,-2.6786,-2.6772,-2.6782,-2.6784,-2.6787,-2.6791,-2.6715,-2.6787,-2.6787,-2.6787,-2.6786,-2.6786,0,-2.6787,-2.6784,-2.6795,-2.68,-2.6809,-2.679,-2.6793,-2.6802,-2.6816,-2.6816,-2.6824,-2.6839,-2.6849,-2.6842,-2.685,-2.6862,-2.6853,-2.6864,-2.6863,-2.6863,-2.6803,-2.6796,-2.6871,-2.6871,-2.6871,-2.6871,-2.6871,-2.6871,-2.6828,-2.6853,-2.6845,-2.6869,-2.6866,-2.6881,-2.6884,-2.6887,-2.6888,-2.6905,-2.6913,-2.6908,-2.6905,-2.6913,-2.6922,-2.6919,-2.6924,-2.6938,-2.6932,-2.6876,-2.6868,-2.686,-2.6853,-2.6939,-2.6939,-2.6991,-2.6992,-2.6992]}]]